#timestamp,LO_Frequency,Hit,StdDev 
1570654815.7,286047000.3,N
1570654835.5,286047002.4,N
1570654855.4,286047002.6,N
1570654875.2,286046998.5,N
1570654895.0,286047001.5,N
1570654895.9,286047001.5,N
1570654945.8,286047000.3,E
1570654955.7,286046998.5,N
1570654975.5,286046998.8,P
1570654995.4,286047000.6,P
1570655015.2,286046999.9,N
1570655035.1,286046999.7,N
1570655036.0,286046999.7,N
1570655055.8,286047001.9,N
1570655075.6,286047004.4,Y
1570655095.5,286047002.3,P
1570655115.3,286046999.9,N
1570655135.2,286046999.9,N
1570655155.0,286047002.3,N
1570655155.9,286047002.3,N
1570655175.7,286047001.5,N
1570655195.6,286047001.6,N
1570655215.4,286047004.2,Y
1570655235.3,286047001.6,P
1570655255.1,286047000.9,P
1570655275.8,286046998.6,P
1570655295.7,286046998.8,N
1570655315.5,286046996.7,N
1570655335.4,286046996.5,N
1570655355.2,286046998.5,N
1570655375.0,286047000.1,N
1570655375.9,286047000.1,N
1570655395.8,286046999.1,N
1570655415.6,286046999.5,N
1570655435.4,286046996.8,N
1570655455.3,286046999.2,N
1570655475.1,286046999.1,N
1570655495.9,286046998.7,N
1570655515.7,286046998.8,N
1570655535.5,286047000.3,N
1570655555.4,286047000.5,N
1570655575.2,286046999.4,N
1570655595.1,286046997.4,N
1570655596.0,286046997.4,N
1570655615.8,286046997.1,N
1570655635.6,286046996.5,N
1570655655.5,286046999.3,N
1570655675.3,286046998.4,N
1570655695.1,286046999.9,N
1570655715.9,286046998.4,N
1570655735.7,286046996.9,N
1570655755.6,286046999.6,N
1570655775.4,286046999.3,N
1570655795.2,286047000.7,N
1570655815.1,286047001.1,N
1570655816.0,286047001.1,N
1570655835.8,286047001.2,N
1570655855.7,286046998.4,N
1570655875.5,286046998.4,N
1570655895.3,286047000.8,N
1570655915.2,286047000.5,N
1570655935.0,286046999.9,N
1570655935.9,286046999.9,N
1570655955.8,286047002.6,N
1570655975.6,286047001.8,N
1570655995.4,286047002.5,N
1570656015.3,286047003.8,N
1570656035.1,286047000.3,N
1570656055.8,286047000.8,N
1570656075.7,286047000.3,N
1570656095.5,286047001.0,N
1570656115.4,286046998.1,N
1570656135.2,286046998.7,N
1570656155.0,286046999.6,N
1570656155.9,286046999.6,N
1570656175.8,286046999.1,N
1570656195.6,286046997.2,N
1570656215.5,286046997.0,N
1570656235.3,286046998.7,N
1570656255.1,286047000.6,N
1570656275.9,286046999.8,N
1570656295.7,286047000.3,N
1570656315.5,286047000.3,N
1570656335.4,286047002.5,N
1570656355.2,286047001.7,N
1570656375.1,286047005.9,Y
1570656376.0,286047005.9,P
1570656395.8,286047003.8,N
1570656415.6,286047005.2,N
1570656435.5,286047005.5,N
1570656455.3,286047005.8,N
1570656475.2,286047006.0,N
1570656495.9,286047001.3,N
1570656515.7,286047001.9,N
1570656535.6,286047004.4,N
1570656555.4,286047002.0,N
1570656575.3,286047002.5,N
1570656595.1,286047004.0,N
1570656596.0,286047004.0,N
1570656615.8,286047005.3,N
1570656635.7,286047005.4,N
1570656655.5,286047003.0,N
1570656675.3,286047005.8,Y
1570656695.2,286047000.9,P
1570656715.0,286047000.5,N
1570656715.9,286047000.5,N
1570656735.8,286047000.3,N
1570656755.6,286046996.6,N
1570656775.4,286046997.0,N
1570656795.3,286046995.4,N
1570656815.1,286047011.9,Y
1570656835.9,286046997.1,P
1570656855.7,286046996.8,N
1570656875.5,286046997.9,N
1570656895.4,286046993.3,Y
1570656915.2,286046996.7,P
1570656935.1,286046997.8,P
1570656936.0,286046997.8,P
1570656955.8,286046996.8,Y
1570656975.6,286046999.7,P
1570656995.5,286047001.9,N
1570657015.3,286047002.2,N
1570657035.2,286047001.8,N
1570657055.9,286047004.1,N
1570657075.7,286047002.9,N
1570657095.6,286047004.9,N
1570657115.4,286047003.8,N
1570657135.2,286047003.6,N
1570657155.1,286047005.8,N
1570657156.0,286047005.8,N
1570657175.8,286047005.3,N
1570657195.7,286047004.2,N
1570657215.5,286047001.4,N
1570657235.3,286047000.1,N
1570657255.2,286047002.8,N
1570657275.0,286047002.8,N
1570657275.9,286047002.8,N
1570657295.8,286047002.8,N
1570657315.6,286047002.1,N
1570657335.4,286047002.1,N
1570657355.3,286047002.5,N
1570657375.1,286047002.2,N
1570657395.9,286047001.5,N
1570657415.7,286047002.0,N
1570657435.5,286047001.8,N
1570657455.4,286047003.7,N
1570657475.2,286047002.9,N
1570657495.0,286047004.5,N
1570657496.0,286047004.5,N
1570657515.8,286047003.3,N
1570657535.6,286047003.9,N
1570657555.5,286047004.2,Y
1570657575.3,286047000.6,P
1570657595.1,286047000.9,N
1570657615.9,286046999.8,N
1570657635.7,286047000.0,N
1570657655.6,286047000.0,N
1570657675.4,286047000.2,N
1570657695.2,286047001.9,N
1570657715.1,286047002.1,N
1570657716.0,286047002.1,N
1570657735.8,286047000.4,N
1570657755.7,286047000.7,N
1570657775.5,286046998.6,N
1570657795.3,286046998.6,N
1570657815.2,286046998.4,N
1570657835.0,286046998.9,N
1570657835.9,286046998.9,N
1570657855.8,286046999.2,N
1570657875.6,286046999.2,N
1570657895.4,286046999.6,N
1570657915.3,286046997.3,N
1570657935.1,286046996.9,N
1570657955.8,286046998.2,N
1570657975.7,286046998.5,N
1570657995.5,286047001.2,N
1570658015.4,286047001.1,N
1570658035.2,286047001.0,N
1570658055.0,286047000.4,N
1570658055.9,286047000.4,N
1570658075.8,286046999.8,N
1570658095.6,286047001.6,N
1570658115.5,286047001.6,N
1570658135.3,286046999.7,N
1570658155.1,286047001.2,N
1570658175.9,286046998.5,N
1570658195.7,286046999.2,N
1570658215.6,286046997.4,N
1570658235.4,286046997.8,N
1570658255.2,286046998.8,N
1570658275.1,286047000.1,N
1570658276.0,286047000.1,N
1570658295.8,286046999.9,N
1570658315.6,286046998.6,N
1570658335.5,286046998.9,N
1570658355.3,286046998.4,N
1570658375.2,286046998.1,N
1570658395.9,286047000.3,N
